Change the Weather History Date:

Wednesday, March 5, 2014

  Actual Average (KHGR) Record (KHGR)
Temperature  
Mean Temperature 26 °F 38 °F  
Max Temperature 41 °F 46 °F 69 °F (2004)
Min Temperature 12 °F 29 °F 11 °F (2015)
Degree Days  
Heating Degree Days 38 27  
Month to date heating degree days 139  
Since 1 July heating degree days 4042  
Cooling Degree Days 0 0  
Month to date cooling degree days 0  
Year to date cooling degree days 0  
Moisture  
Dew Point 15 °F    
Average Humidity 71    
Maximum Humidity 100    
Minimum Humidity 39    
Precipitation  
Precipitation 0.00 in 0.08 in 0.79 in (2008)
Sea Level Pressure  
Sea Level Pressure 30.31 in    
Wind  
Wind Speed 2 mph (NNE)    
Max Wind Speed 17 mph    
Max Gust Speed 23 mph    
Visibility 10 miles    
Events      
T = Trace of Precipitation, MM = Missing Value Source: NWS Daily Summary

Daily Weather History Graph

Daily Weather History Graph

Search for Another Location

Airport or City:

Trip Planner

Search our weather history database for the weather conditions in past years. The results will help you decide how hot, cold, wet, or windy it might be!

Date:

Astronomy

Mar. 05, 2014 Rise Set
Actual Time 6:36 AM EST 6:06 PM EST
Civil Twilight 6:09 AM EST 6:32 PM EST
Nautical Twilight 5:38 AM EST 7:04 PM EST
Astronomical Twilight 5:07 AM EST 7:35 PM EST
Moon 9:02 AM EST (3/5) 11:10 PM EST (3/5)
Length of Visible Light 12h 23m
Length of Day
11h 29m
Waxing Crescent, 23% of the Moon is Illuminated
Mar 5
Waxing Crescent
Mar 8
First Quarter
Mar 16
Full
Mar 23
Last Quarter
Mar 30
New

Hourly Weather History & Observations

Time (EST) Temp. Windchill Dew Point Humidity Pressure Visibility Wind Dir Wind Speed Gust Speed Precip Events Conditions
12:15 AM 14.0 °F - 10.4 °F 86% 30.27 in 10.0 mi Calm Calm - N/A   Clear
12:35 AM 14.0 °F - 10.4 °F 86% 30.27 in 10.0 mi Calm Calm - N/A   Clear
12:55 AM 14.0 °F - 12.2 °F 93% 30.26 in 10.0 mi Calm Calm - N/A   Clear
1:15 AM 12.2 °F - 10.4 °F 92% 30.25 in 10.0 mi Calm Calm - N/A   Clear
1:35 AM 12.2 °F - 10.4 °F 92% 30.25 in 10.0 mi Calm Calm - N/A   Clear
1:55 AM 14.0 °F - 10.4 °F 86% 30.25 in 10.0 mi Calm Calm - N/A   Clear
2:15 AM 14.0 °F - 12.2 °F 93% 30.24 in 10.0 mi Calm Calm - N/A   Clear
2:35 AM 14.0 °F - 10.4 °F 86% 30.24 in 10.0 mi Calm Calm - N/A   Clear
2:55 AM 12.2 °F - 10.4 °F 92% 30.24 in 10.0 mi Calm Calm - N/A   Clear
3:15 AM 14.0 °F - 12.2 °F 93% 30.23 in 10.0 mi Calm Calm - N/A   Clear
3:35 AM 12.2 °F - 12.2 °F 100% 30.23 in 10.0 mi Calm Calm - N/A   Clear
3:55 AM 14.0 °F - 12.2 °F 93% 30.24 in 10.0 mi Calm Calm - N/A   Clear
4:15 AM 14.0 °F - 12.2 °F 93% 30.24 in 10.0 mi Calm Calm - N/A   Clear
4:35 AM 12.2 °F - 12.2 °F 100% 30.25 in 10.0 mi Calm Calm - N/A   Clear
4:55 AM 12.2 °F - 12.2 °F 100% 30.25 in 10.0 mi Calm Calm - N/A   Clear
5:15 AM 12.2 °F - 12.2 °F 100% 30.26 in 10.0 mi Calm Calm - N/A   Clear
5:35 AM 12.2 °F - 12.2 °F 100% 30.26 in 10.0 mi Calm Calm - N/A   Clear
6:50 AM 12.2 °F - 8.6 °F 85% 30.26 in 10.0 mi Calm Calm - N/A   Clear
7:50 AM 12.2 °F - 10.4 °F 92% 30.29 in 10.0 mi Calm Calm - N/A   Clear
10:45 AM 30.2 °F - 10.4 °F 44% 30.29 in 10.0 mi Calm Calm - N/A   Clear
11:50 AM 33.8 °F - 14.0 °F 44% 30.27 in 10.0 mi Calm Calm - N/A   Scattered Clouds
12:50 PM 37.4 °F - 15.8 °F 41% 30.26 in 10.0 mi Calm Calm - N/A   Clear
1:45 PM 39.2 °F - 17.6 °F 42% 30.24 in 10.0 mi Calm Calm - N/A   Clear
2:50 PM 41.0 °F - 17.6 °F 39% 30.24 in 10.0 mi Calm Calm - N/A   Clear
3:45 PM 41.0 °F - 17.6 °F 39% 30.25 in 10.0 mi North - - N/A   Clear
4:45 PM 39.2 °F - 17.6 °F 42% 30.25 in 10.0 mi North - - N/A   Clear
5:50 PM 37.4 °F 32.8 °F 17.6 °F 45% 30.29 in 10.0 mi NE 5.8 mph - N/A   Clear
6:45 PM 35.6 °F - 17.6 °F 48% 30.33 in 10.0 mi Calm Calm - N/A   Mostly Cloudy
7:45 PM 35.6 °F 28.0 °F 19.4 °F 52% 30.36 in 10.0 mi NNE 10.4 mph - N/A   Overcast
7:55 PM 33.8 °F 24.8 °F 19.4 °F 56% 30.37 in 10.0 mi NNE 12.7 mph - N/A   Overcast
8:15 PM 33.8 °F 25.8 °F 19.4 °F 56% 30.38 in 10.0 mi North 10.4 mph - N/A   Overcast
8:35 PM 33.8 °F 26.4 °F 19.4 °F 56% 30.39 in 10.0 mi North 9.2 mph - N/A   Overcast
8:55 PM 33.8 °F 26.4 °F 19.4 °F 56% 30.39 in 10.0 mi North 9.2 mph - N/A   Overcast
9:15 PM 32.0 °F 24.2 °F 19.4 °F 60% 30.40 in 10.0 mi NNE 9.2 mph - N/A   Overcast
9:35 PM 32.0 °F 23.6 °F 19.4 °F 60% 30.40 in 10.0 mi North 10.4 mph - N/A   Overcast
9:55 PM 32.0 °F 23.0 °F 19.4 °F 60% 30.41 in 10.0 mi North 11.5 mph 17.3 mph N/A   Overcast
10:15 PM 32.0 °F 21.2 °F 19.4 °F 60% 30.41 in 10.0 mi North 16.1 mph 23.0 mph N/A   Overcast
10:35 PM 32.0 °F - 19.4 °F 60% 30.44 in 10.0 mi North - - N/A   Overcast
10:55 PM 30.2 °F 18.5 °F 19.4 °F 64% 30.45 in 10.0 mi NNE 17.3 mph - N/A   Overcast
11:15 PM 30.2 °F 19.3 °F 19.4 °F 64% 30.46 in 10.0 mi North 15.0 mph - N/A   Overcast
11:35 PM 30.2 °F 21.9 °F 19.4 °F 64% 30.46 in 10.0 mi NNE 9.2 mph - N/A   Overcast
11:55 PM 30.2 °F 21.3 °F 19.4 °F 64% 30.47 in 10.0 mi NNE 10.4 mph - N/A   Overcast